Regional Weather Roundup
Issued by NWS Huntsville, AL

Home | Current Version | Previous Version | Text Only | Print | Product List | Glossary On
Versions: 1 2 3 4 5 6 7 8 9 10 11 12 13 14 15 16 17 18 19 20 21 22 23 24 25 26 27 28 29 30 31 32 33 34 35 36 37 38 39 40 41 42 43 44 45 46 47 48 49 50
000
ASUS44 KHUN 271610
RWRHUN

WEATHER ROUNDUP FOR THE TENNESSEE VALLEY
NATIONAL WEATHER SERVICE HUNTSVILLE AL
1000 AM CST FRI FEB 27 2015

ALZ001>004-271700-
NORTHWEST ALABAMA

CITY           SKY/WX    TMP DP  RH WIND       PRES   REMARKS
SHOALS AIRPORT SUNNY     28  14  55 NE9       30.54R WCI  19
$$

ALZ005>007-016-271700-
NORTH CENTRAL ALABAMA

CITY           SKY/WX    TMP DP  RH WIND       PRES   REMARKS
DECATUR AP     SUNNY     27  17  66 MISG      30.52R
HUNTSVILLE AP  MOSUNNY   30  17  58 NE7       30.51R WCI  23
HUN NWS/UAH      N/A     28  16  61 NE6         N/A  WCI  22
MERIDIANVILLE  PTSUNNY   28  14  54 NE7       30.51R WCI  21
REDSTONE ARSN  PTSUNNY   28  18  68 N9        30.50R WCI  19
VINEMONT AP    FAIR      26  16  65 NE8       30.48S WCI  18
$$

ALZ008>010-271700-
NORTHEAST ALABAMA

CITY           SKY/WX    TMP DP  RH WIND       PRES   REMARKS
ALBERTVILLE    CLOUDY    28  23  80 N9        30.45S WCI  20
FORT PAYNE     PTSUNNY   30  18  59 NE7       30.45S WCI  23
SCOTTSBORO AP  PTSUNNY   30  19  64 NE8       30.49F WCI  23
SCOTTSBORO HCN   N/A     28 N/A N/A MISG        N/A
VALLEY HEAD      N/A     28 N/A N/A MISG        N/A
$$

TNZ076-096-097-271700-
SOUTHEASTERN MIDDLE TENNESSEE

CITY           SKY/WX    TMP DP  RH WIND       PRES   REMARKS
TULLAHOMA      MOSUNNY   25  12  58 NE12      30.49R WCI  14
WINCHESTER     PTSUNNY   25  16  68 N7        30.50R WCI  17
$$

...SURROUNDING SITES...

CITY           SKY/WX    TMP DP  RH WIND       PRES   REMARKS
ATLANTA        MOSUNNY   39  27  62 NW10      30.39R WCI  32
ANNISTON       CLOUDY    33  23  66 N10       30.47R WCI  25
BIRMINGHAM     MOSUNNY   32  22  66 CALM      30.48F
CHATTANOOGA    MOSUNNY   32  18  56 N9        30.48R WCI  24
CORINTH        FAIR      28  10  47 NE14      30.55R WCI  17
DALTON         SUNNY     32  21  64 N10G17    30.47R WCI  24
GADSDEN        SUNNY     32  19  59 N10       30.46S WCI  24
GOLDEN TRNGL   MOSUNNY   36  23  60 N12       30.49R WCI  27
HALEYVILLE       N/A     26  15  63 NE8       30.51R WCI  18
JACKSON TN     CLOUDY    24  14  65 N13       30.59S WCI  12
LEWISBURG        N/A     26  11  53 NE8       30.53R WCI  18
MEMPHIS        MOSUNNY   27  13  55 NE10      30.59R WCI  17
MURFREESBORO   FAIR      26   8  46 NE10      30.55R WCI  16
NASHVILLE      MOSUNNY   27   9  46 N12       30.57R WCI  17
OXFORD MS      FAIR      27  16  63 N15       30.56R WCI  15
ROME           MOSUNNY   33  22  63 N10       30.46R WCI  25
SAVANNAH       SUNNY     27   9  46 NE8       30.56S WCI  18
TUPELO         SUNNY     29  14  53 NE14      30.54R WCI  18
TUSCALOOSA     SUNNY     36  23  59 N8        30.50F WCI  30
$$

...GULF COAST WEATHER...

CITY           SKY/WX    TMP DP  RH WIND       PRES   REMARKS
GULFPORT       SUNNY     43  30  60 NE15G24   30.40R
PASCAGOULA     SUNNY     44  30  57 NE12      30.39S
MOBILE         PTSUNNY   43  30  60 NE13      30.39F
GULF SHORES    SUNNY     45  32  60 NE10      30.38S
PENSACOLA      PTSUNNY   47  32  56 N13       30.37S
DESTIN         MOSUNNY   46  32  58 NE9       30.36F
PANAMA CITY    PTSUNNY   48  34  58 N12       30.35R
APPALACHICOLA  PTSUNNY   51  37  58 N10       30.33R
$$



USA.gov is the U.S. government's official web portal to all federal, state and local government web resources and services.